This is the latest recevied weather packets stored in our database for station/object DO7ZT-13. If no packets are shown the sender has not sent any weather packets the latest 10 day(s).
| Time | Temp. | Humidity | Pressure | Rain* | Wind** | Luminosity | Snow |
|---|---|---|---|---|---|---|---|
| 1777211726 | 12.78° C | 34% | 1023.7 hPa | 0 mm | 1.79 m/s, 294° | - | - |
| 1777211414 | 12.78° C | 33% | 1023.7 hPa | 0 mm | 0.89 m/s, 264° | - | - |
| 1777211126 | 12.22° C | 35% | 1023.8 hPa | 0 mm | 0.89 m/s, 264° | - | - |
| 1777210814 | 12.22° C | 34% | 1023.8 hPa | 0 mm | 1.34 m/s, 318° | - | - |
| 1777210526 | 12.22° C | 35% | 1023.8 hPa | 0 mm | 0.89 m/s, 307° | - | - |
| 1777210214 | 12.22° C | 34% | 1023.8 hPa | 0 mm | 0.89 m/s, 330° | - | - |
| 1777209926 | 12.22° C | 34% | 1023.8 hPa | 0 mm | 1.79 m/s, 318° | - | - |
| 1777209614 | 12.22° C | 36% | 1023.8 hPa | 0 mm | 1.34 m/s, 348° | - | - |
| 1777209326 | 12.22° C | 35% | 1023.9 hPa | 0 mm | 0.89 m/s, 231° | - | - |
| 1777209014 | 12.22° C | 37% | 1023.9 hPa | 0 mm | 0.89 m/s, 336° | - | - |
| 1777208726 | 11.11° C | 37% | 1023.9 hPa | 0 mm | 0.89 m/s, 302° | - | - |
| 1777208414 | 12.78° C | 35% | 1023.9 hPa | 0 mm | 0.89 m/s, 0° | - | - |
| 1777208139 | 12.22° C | 36% | 1023.9 hPa | 0 mm | 0 m/s | - | - |
| 1777207826 | 12.22° C | 37% | 1023.9 hPa | 0 mm | 1.34 m/s, 307° | - | - |
| 1777207514 | 12.22° C | 35% | 1023.9 hPa | 0 mm | 1.79 m/s, 307° | - | - |
| 1777207226 | 12.22° C | 37% | 1023.9 hPa | 0 mm | 1.34 m/s, 312° | - | - |
| 1777206914 | 11.11° C | 36% | 1023.9 hPa | 0 mm | 2.24 m/s, 12° | - | - |
| 1777206627 | 12.22° C | 36% | 1024.1 hPa | 0 mm | 1.79 m/s, 0° | - | - |
| 1777206314 | 12.22° C | 38% | 1024.1 hPa | 0 mm | 1.79 m/s, 348° | - | - |
| 1777206029 | 12.22° C | 37% | 1024.1 hPa | 0 mm | 1.34 m/s, 330° | - | - |
| 1777205713 | 12.22° C | 35% | 1024.1 hPa | 0 mm | 0.89 m/s, 300° | - | - |
| 1777205426 | 12.22° C | 35% | 1024.1 hPa | 0 mm | 1.34 m/s, 324° | - | - |
| 1777205113 | 12.22° C | 36% | 1024.1 hPa | 0 mm | 1.34 m/s, 308° | - | - |
| 1777204825 | 11.11° C | 35% | 1024.1 hPa | 0 mm | 0.89 m/s, 268° | - | - |
| 1777204513 | 12.22° C | 37% | 1024.1 hPa | 0 mm | 1.34 m/s, 313° | - | - |
* Rain latest hour (hover to see other rain measurements)
** Current wind speed in m/s (hover to see current wind gust speed)